TimeEST,TemperatureF,Dew PointF,Humidity,Sea Level PressureIn,VisibilityMPH,Wind Direction,Wind SpeedMPH,Gust SpeedMPH,PrecipitationIn,Events,Conditions,WindDirDegrees,DateUTC
12:52 AM,39.0,30.9,73,30.40,10.0,North,5.8,-,N/A,,Scattered Clouds,360,2012-11-17 05:52:00
1:52 AM,36.0,30.0,79,30.41,10.0,North,6.9,-,N/A,,Clear,360,2012-11-17 06:52:00
2:52 AM,36.0,30.0,79,30.41,10.0,North,8.1,-,N/A,,Clear,10,2012-11-17 07:52:00
3:52 AM,37.0,30.0,76,30.41,10.0,North,8.1,-,N/A,,Clear,10,2012-11-17 08:52:00
4:52 AM,36.0,28.9,76,30.42,10.0,North,8.1,-,N/A,,Clear,10,2012-11-17 09:52:00
5:52 AM,35.1,28.9,78,30.43,10.0,NNE,8.1,-,N/A,,Clear,20,2012-11-17 10:52:00
6:52 AM,36.0,28.9,76,30.44,10.0,North,9.2,-,N/A,,Partly Cloudy,10,2012-11-17 11:52:00
7:52 AM,39.9,28.9,65,30.46,10.0,NNE,11.5,-,N/A,,Partly Cloudy,20,2012-11-17 12:52:00
8:52 AM,44.1,30.0,58,30.47,10.0,NNE,18.4,23.0,N/A,,Partly Cloudy,20,2012-11-17 13:52:00
9:52 AM,48.0,30.0,50,30.48,10.0,NNE,13.8,-,N/A,,Partly Cloudy,30,2012-11-17 14:52:00
10:52 AM,51.1,26.1,38,30.47,10.0,NNE,13.8,24.2,N/A,,Partly Cloudy,30,2012-11-17 15:52:00
11:52 AM,54.0,27.0,35,30.45,10.0,NNE,15.0,-,N/A,,Partly Cloudy,30,2012-11-17 16:52:00
12:52 PM,55.9,26.1,32,30.44,10.0,ENE,12.7,-,N/A,,Partly Cloudy,60,2012-11-17 17:52:00
1:52 PM,57.0,24.1,28,30.40,10.0,NE,11.5,18.4,N/A,,Scattered Clouds,50,2012-11-17 18:52:00
2:52 PM,57.9,24.1,27,30.40,10.0,NNE,10.4,-,N/A,,Scattered Clouds,30,2012-11-17 19:52:00
3:52 PM,55.9,23.0,28,30.41,10.0,NE,10.4,-,N/A,,Mostly Cloudy,50,2012-11-17 20:52:00
4:52 PM,55.0,21.9,28,30.42,10.0,NE,10.4,-,N/A,,Mostly Cloudy,40,2012-11-17 21:52:00
5:52 PM,53.1,24.1,32,30.43,10.0,NE,8.1,20.7,N/A,,Mostly Cloudy,40,2012-11-17 22:52:00
6:52 PM,51.1,25.0,36,30.45,10.0,NE,8.1,-,N/A,,Mostly Cloudy,40,2012-11-17 23:52:00
7:52 PM,50.0,25.0,38,30.45,10.0,NE,9.2,-,N/A,,Mostly Cloudy,40,2012-11-18 00:52:00
8:52 PM,48.9,25.0,39,30.45,10.0,NNE,6.9,-,N/A,,Mostly Cloudy,30,2012-11-18 01:52:00
9:52 PM,48.9,24.1,38,30.45,10.0,NE,10.4,-,N/A,,Mostly Cloudy,40,2012-11-18 02:52:00
10:52 PM,48.0,25.0,41,30.45,10.0,NNE,10.4,-,N/A,,Overcast,30,2012-11-18 03:52:00
11:52 PM,46.0,26.1,46,30.45,10.0,North,6.9,-,N/A,,Overcast,10,2012-11-18 04:52:00